Location: Helsinki
(60.1699°N, 24.9384°E)
Time: 04:16:43
(UTC+02:00)

Transit 4A - Pass Details

Date: 03 November 2020
Orbit: 862 x 982 km, 66.8° (Epoch: 25 November)

Event Time Altitude Azimuth Distance (km) Brightness Sun altitude
Rises 16:30:14 0° 245° (WSW) 3,646 14.5 -2.2°
Reaches altitude 10° 16:32:47 10° 249° (WSW) 2,714 12.4 -2.5°
Maximum altitude 16:39:08 67° 332° (NNW) 1,063 8.3 -3.2°
Drops below altitude 10° 16:45:35 10° 55° (NE) 2,747 9.7 -3.9°
Enters shadow 16:46:58 - 57° (ENE) 3,251 10.1 -4.1°
Sets 16:48:11 0° 58° (ENE) 3,694 - -4.2°
